EUTELSAT 36B

Last updated on May 21, 2019, 3:10 a.m. UTC

1 36101U 09065A   19140.81966109  .00000146  00000-0  00000+0 0  9996
2 36101   0.0683   6.0875 0005294  59.0230 144.0182  1.00271145 34890
UTC
Height (km)
Latitude
Longitude
Inclination
Orbital Period
UTC large
Height (km)
Speed (km/s)
/
Latitude / Longitude
Inclination (degrees)
Orbital Period (minutes)
Azimuth
Elevation
Range (km)
Doppler Factor
iOS Compass Heading
iOS Angle

Next 30 passes for location: Hong Kong

Rise time Rise Azimuth (degrees) Set time Set Azimuth (degrees) Duration Max altitude (degrees)

No matching passes for this satellites